• In Germany
  • List of Countries
  • For 7 days
  • Water Temperature
  • Satellite Maps
  • Weather Map
  • Weather Widgets
  • user-avatar
    Login

    Hourly Weather Tirana

    Today, 21 July, Friday

    Time Temperature Precipitation Wind Pressure Humidity
    00:00 +24°C° 0 mm 1 mps 752 mmHg 62%
    01:00 +24°C° 0 mm 1 mps 752 mmHg 61%
    02:00 +24°C° 0 mm 1 mps 752 mmHg 61%
    03:00 +24°C° 0 mm 1 mps 752 mmHg 61%
    04:00 +24°C° 0 mm 1 mps 752 mmHg 61%
    05:00 +26°C° 0 mm 1 mps 752 mmHg 56%
    06:00 +28°C° 0 mm 1 mps 752 mmHg 51%
    07:00 +30°C° 0 mm 1 mps 752 mmHg 46%
    08:00 +32°C° 0 mm 1 mps 752 mmHg 42%
    09:00 +33°C° 0 mm 1 mps 752 mmHg 37%
    10:00 +36°C° 0 mm 2 mps 752 mmHg 32%
    11:00 +37°C° 0 mm 2 mps 752 mmHg 31%
    12:00 +38°C° 0 mm 3 mps 752 mmHg 29%
    13:00 +38°C° 0 mm 4 mps 752 mmHg 27%
    14:00 +38°C° 0 mm 4 mps 752 mmHg 29%
    15:00 +37°C° 0 mm 4 mps 752 mmHg 31%
    16:00 +37°C° 0 mm 4 mps 752 mmHg 32%
    17:00 +34°C° 0 mm 3 mps 752 mmHg 40%
    18:00 +31°C° 0 mm 2 mps 752 mmHg 47%
    19:00 +29°C° 0 mm 2 mps 752 mmHg 55%
    20:00 +28°C° 0 mm 1 mps 752 mmHg 56%
    21:00 +27°C° 0 mm 1 mps 753 mmHg 56%
    22:00 +27°C° 0 mm 1 mps 753 mmHg 57%
    23:00 +26°C° 0 mm 1 mps 753 mmHg 56%

    Tomorrow, 22 July, Saturday

    Time Temperature Precipitation Wind Pressure Humidity
    00:00 +26°C° 0 mm 1 mps 753 mmHg 56%
    01:00 +26°C° 0 mm 1 mps 753 mmHg 55%
    02:00 +26°C° 0 mm 1 mps 753 mmHg 54%
    03:00 +26°C° 0 mm 1 mps 753 mmHg 54%
    04:00 +25°C° 0 mm 1 mps 753 mmHg 53%
    05:00 +27°C° 0 mm 1 mps 753 mmHg 49%
    06:00 +29°C° 0 mm 1 mps 753 mmHg 45%
    07:00 +31°C° 0 mm 1 mps 753 mmHg 41%
    08:00 +33°C° 0 mm 1 mps 753 mmHg 38%
    09:00 +36°C° 0 mm 2 mps 753 mmHg 34%
    10:00 +38°C° 0 mm 2 mps 753 mmHg 30%
    11:00 +38°C° 0 mm 2 mps 753 mmHg 28%
    12:00 +39°C° 0 mm 3 mps 753 mmHg 27%
    13:00 +41°C° 0 mm 4 mps 753 mmHg 25%
    14:00 +39°C° 0 mm 3 mps 753 mmHg 26%
    15:00 +39°C° 0 mm 3 mps 753 mmHg 27%
    16:00 +38°C° 0 mm 3 mps 753 mmHg 28%
    17:00 +35°C° 0 mm 2 mps 753 mmHg 33%
    18:00 +32°C° 0 mm 1 mps 753 mmHg 38%
    19:00 +29°C° 0 mm 1 mps 753 mmHg 44%
    20:00 +29°C° 0 mm 1 mps 753 mmHg 44%
    21:00 +28°C° 0 mm 1 mps 753 mmHg 44%
    22:00 +27°C° 0 mm 1 mps 754 mmHg 44%
    23:00 +27°C° 0 mm 1 mps 754 mmHg 43%

    Day after tomorrow, 23 July, Sunday

    Time Temperature Precipitation Wind Pressure Humidity
    00:00 +27°C° 0 mm 1 mps 753 mmHg 43%
    01:00 +27°C° 0 mm 1 mps 753 mmHg 43%
    02:00 +26°C° 0 mm 1 mps 753 mmHg 43%
    03:00 +26°C° 0 mm 2 mps 753 mmHg 43%
    04:00 +26°C° 0 mm 2 mps 753 mmHg 43%
    05:00 +28°C° 0 mm 1 mps 753 mmHg 40%
    06:00 +30°C° 0 mm 1 mps 753 mmHg 37%
    07:00 +32°C° 0 mm 1 mps 753 mmHg 34%
    08:00 +34°C° 0 mm 1 mps 753 mmHg 32%
    09:00 +36°C° 0 mm 2 mps 753 mmHg 29%
    10:00 +38°C° 0 mm 2 mps 753 mmHg 26%
    11:00 +39°C° 0 mm 3 mps 752 mmHg 25%
    12:00 +40°C° 0 mm 4 mps 752 mmHg 24%
    13:00 +41°C° 0 mm 4 mps 752 mmHg 23%
    14:00 +40°C° 0 mm 4 mps 751 mmHg 25%
    15:00 +40°C° 0 mm 4 mps 751 mmHg 26%
    16:00 +38°C° 0 mm 4 mps 751 mmHg 27%
    17:00 +35°C° 0 mm 4 mps 751 mmHg 34%
    18:00 +33°C° 0 mm 3 mps 751 mmHg 40%
    19:00 +29°C° 0 mm 3 mps 751 mmHg 47%
    20:00 +28°C° 0 mm 2 mps 752 mmHg 48%
    21:00 +27°C° 0 mm 2 mps 752 mmHg 49%
    22:00 +26°C° 0 mm 2 mps 752 mmHg 50%
    23:00 +26°C° 0 mm 2 mps 752 mmHg 50%

    24 July, Monday

    Time Temperature Precipitation Wind Pressure Humidity
    00:00 +26°C° 0 mm 1 mps 752 mmHg 49%
    01:00 +26°C° 0 mm 1 mps 751 mmHg 49%
    02:00 +25°C° 0 mm 1 mps 751 mmHg 48%
    03:00 +25°C° 0 mm 1 mps 751 mmHg 48%
    04:00 +25°C° 0 mm 1 mps 750 mmHg 48%
    05:00 +27°C° 0 mm 1 mps 750 mmHg 44%
    06:00 +29°C° 0 mm 1 mps 750 mmHg 41%
    07:00 +31°C° 0 mm 1 mps 750 mmHg 37%
    08:00 +33°C° 0 mm 1 mps 750 mmHg 33%
    09:00 +35°C° 0 mm 1 mps 750 mmHg 28%
    10:00 +37°C° 0 mm 2 mps 750 mmHg 24%
    11:00 +38°C° 0 mm 2 mps 749 mmHg 22%
    12:00 +39°C° 0 mm 3 mps 749 mmHg 21%
    13:00 +41°C° 0 mm 4 mps 748 mmHg 20%
    14:00 +40°C° 0 mm 3 mps 748 mmHg 21%
    15:00 +39°C° 0 mm 3 mps 747 mmHg 22%
    16:00 +39°C° 0 mm 2 mps 747 mmHg 24%
    17:00 +36°C° 0 mm 2 mps 747 mmHg 29%
    18:00 +34°C° 0 mm 2 mps 746 mmHg 35%
    19:00 +30°C° 0 mm 2 mps 746 mmHg 41%
    20:00 +29°C° 0 mm 3 mps 746 mmHg 43%
    21:00 +28°C° 0 mm 4 mps 746 mmHg 44%
    22:00 +28°C° 0 mm 5 mps 746 mmHg 45%
    23:00 +27°C° 0 mm 5 mps 746 mmHg 46%

    25 July, Tuesday

    Time Temperature Precipitation Wind Pressure Humidity
    00:00 +27°C° 0 mm 5 mps 746 mmHg 46%
    01:00 +26°C° 0 mm 5 mps 746 mmHg 46%
    02:00 +26°C° 0 mm 5 mps 746 mmHg 47%
    03:00 +25°C° 0 mm 5 mps 746 mmHg 48%
    04:00 +25°C° 0 mm 4 mps 745 mmHg 48%
    05:00 +26°C° 0 mm 4 mps 745 mmHg 48%
    06:00 +28°C° 0 mm 4 mps 745 mmHg 48%
    07:00 +29°C° 0 mm 4 mps 745 mmHg 49%
    08:00 +32°C° 0 mm 4 mps 745 mmHg 44%
    09:00 +33°C° 0 mm 4 mps 745 mmHg 40%
    10:00 +34°C° 0 mm 4 mps 745 mmHg 36%
    11:00 +35°C° 0 mm 5 mps 745 mmHg 36%
    12:00 +35°C° 0 mm 5 mps 745 mmHg 36%
    13:00 +36°C° 0 mm 5 mps 745 mmHg 36%
    14:00 +35°C° 0 mm 4 mps 745 mmHg 40%
    15:00 +34°C° 0 mm 4 mps 745 mmHg 44%
    16:00 +33°C° 0 mm 3 mps 745 mmHg 47%
    17:00 +31°C° 0 mm 3 mps 745 mmHg 54%
    18:00 +29°C° 0 mm 2 mps 746 mmHg 60%
    19:00 +27°C° 0 mm 1 mps 746 mmHg 66%
    20:00 +26°C° 0 mm 2 mps 746 mmHg 71%
    21:00 +25°C° 0 mm 2 mps 746 mmHg 75%
    22:00 +24°C° 0 mm 2 mps 746 mmHg 79%
    23:00 +24°C° 0 mm 2 mps 746 mmHg 78%

    26 July, Wednesday

    Time Temperature Precipitation Wind Pressure Humidity
    00:00 +23°C° 0 mm 2 mps 746 mmHg 78%
    01:00 +23°C° 0 mm 2 mps 746 mmHg 77%
    02:00 +23°C° 0 mm 2 mps 746 mmHg 76%
    03:00 +23°C° 0 mm 2 mps 746 mmHg 74%
    04:00 +21°C° 0 mm 2 mps 746 mmHg 73%
    05:00 +24°C° 0 mm 2 mps 746 mmHg 66%
    06:00 +26°C° 0 mm 2 mps 747 mmHg 58%
    07:00 +28°C° 0 mm 2 mps 747 mmHg 51%
    08:00 +30°C° 0 mm 2 mps 747 mmHg 46%
    09:00 +31°C° 0 mm 2 mps 747 mmHg 41%
    10:00 +34°C° 0 mm 3 mps 747 mmHg 37%
    11:00 +34°C° 0 mm 3 mps 747 mmHg 36%
    12:00 +34°C° 0 mm 4 mps 747 mmHg 36%
    13:00 +35°C° 0 mm 4 mps 747 mmHg 36%
    14:00 +34°C° 0 mm 4 mps 747 mmHg 39%
    15:00 +34°C° 0 mm 4 mps 747 mmHg 42%
    16:00 +33°C° 0 mm 4 mps 747 mmHg 45%
    17:00 +30°C° 0.1 mm 3 mps 747 mmHg 52%
    18:00 +28°C° 0.1 mm 3 mps 747 mmHg 60%
    19:00 +26°C° 0.1 mm 2 mps 747 mmHg 67%
    20:00 +25°C° 0.1 mm 2 mps 748 mmHg 72%
    21:00 +24°C° 0.1 mm 2 mps 748 mmHg 76%
    22:00 +23°C° 0.1 mm 2 mps 749 mmHg 80%
    23:00 +23°C° 0 mm 2 mps 749 mmHg 80%
    Show more